Manistique, MI

2:33 AM EDT on April 29, 2017 (GMT -0400)
Schoolcraft County

Weather History for KISQ - November, 2012

Change the Weather History Date:

Saturday, November 10, 2012

  Actual Average Record
Temperature  
Mean Temperature 42 °F -  
Max Temperature 48 °F 42 °F 59 °F (1970)
Min Temperature 37 °F 29 °F 11 °F (1986)
Degree Days  
Heating Degree Days 22    
Moisture  
Dew Point 39 °F    
Average Humidity 88    
Maximum Humidity 93    
Minimum Humidity 81    
Precipitation  
Precipitation 0.00 in - - ()
Sea Level Pressure  
Sea Level Pressure 30.02 in    
Wind  
Wind Speed 10 mph (East)    
Max Wind Speed 23 mph    
Max Gust Speed 33 mph    
Visibility 7 miles    
Events Rain    
Averages and records for this station are not official NWS values.
T = Trace of Precipitation, MM = Missing Value Source: NWS Daily Summary

Daily Weather History Graph

Daily Weather History Graph

Search for Another Location

Airport or City:

Trip Planner

Search our weather history database for the weather conditions in past years. The results will help you decide how hot, cold, wet, or windy it might be!

Date:

Astronomy

Nov. 10, 2012 Rise Set
Actual Time 7:38 AM EST 5:18 PM EST
Civil Twilight 7:06 AM EST 5:50 PM EST
Nautical Twilight 6:30 AM EST 6:25 PM EST
Astronomical Twilight 5:55 AM EST 7:00 PM EST
Moon 3:32 AM EST (11/10) 3:13 PM EST (11/10)
Length of Visible Light 10h 43m
Length of Day
9h 39m
Waning Crescent, 14% of the Moon is Illuminated
Nov 10
Waning Crescent
Nov 13
New
Nov 20
First Quarter
Nov 28
Full
Dec 6
Last Quarter

Hourly Weather History & Observations

Time (EST) Temp. Windchill Dew Point Humidity Pressure Visibility Wind Dir Wind Speed Gust Speed Precip Events Conditions
12:14 AM 37.4 °F 33.8 °F 33.8 °F 87% 30.16 in 10.0 mi NNE 4.6 mph - N/A   Overcast
12:35 AM 37.4 °F 33.8 °F 33.8 °F 87% 30.16 in 10.0 mi NNE 4.6 mph - N/A   Overcast
12:55 AM 37.4 °F 33.8 °F 33.8 °F 87% 30.16 in 10.0 mi North 4.6 mph - N/A   Overcast
1:14 AM 37.4 °F 32.8 °F 33.8 °F 87% 30.16 in 10.0 mi NNE 5.8 mph - N/A   Overcast
1:35 AM 37.4 °F 32.8 °F 33.8 °F 87% 30.16 in 10.0 mi North 5.8 mph - N/A   Overcast
1:54 AM 37.4 °F 32.8 °F 33.8 °F 87% 30.16 in 10.0 mi North 5.8 mph - N/A   Overcast
2:14 AM 37.4 °F 32.8 °F 33.8 °F 87% 30.16 in 10.0 mi NNE 5.8 mph - N/A   Overcast
2:35 AM 37.4 °F 33.8 °F 32.0 °F 81% 30.16 in 10.0 mi NNE 4.6 mph - N/A   Overcast
2:54 AM 37.4 °F 33.8 °F 33.8 °F 87% 30.16 in 10.0 mi NNE 4.6 mph - N/A   Overcast
3:15 AM 37.4 °F 32.1 °F 33.8 °F 87% 30.15 in 10.0 mi NE 6.9 mph - N/A   Overcast
3:34 AM 39.2 °F 35.0 °F 33.8 °F 81% 30.15 in 10.0 mi NE 5.8 mph - N/A   Overcast
3:54 AM 39.2 °F 35.0 °F 33.8 °F 81% 30.14 in 10.0 mi NE 5.8 mph - N/A   Overcast
4:15 AM 39.2 °F 34.2 °F 33.8 °F 81% 30.14 in 10.0 mi ENE 6.9 mph - N/A   Overcast
4:34 AM 39.2 °F 34.2 °F 35.6 °F 87% 30.13 in 10.0 mi ENE 6.9 mph - N/A   Overcast
4:55 AM 39.2 °F 33.6 °F 35.6 °F 87% 30.13 in 10.0 mi ENE 8.1 mph - N/A   Overcast
5:15 AM 41.0 °F 35.8 °F 35.6 °F 81% 30.13 in 10.0 mi ENE 8.1 mph - N/A   Overcast
5:34 AM 41.0 °F 34.7 °F 35.6 °F 81% 30.13 in 10.0 mi East 10.4 mph - N/A   Overcast
5:55 AM 41.0 °F 33.9 °F 35.6 °F 81% 30.11 in 10.0 mi East 12.7 mph 19.6 mph N/A   Overcast
6:14 AM 41.0 °F 35.8 °F 35.6 °F 81% 30.12 in 10.0 mi East 8.1 mph 24.2 mph N/A   Overcast
6:34 AM 39.2 °F 31.6 °F 35.6 °F 87% 30.12 in 10.0 mi East 12.7 mph 18.4 mph N/A   Overcast
6:54 AM 39.2 °F 31.6 °F 35.6 °F 87% 30.12 in 10.0 mi East 12.7 mph 19.6 mph N/A   Overcast
7:14 AM 39.2 °F 30.8 °F 35.6 °F 87% 30.12 in 10.0 mi East 15.0 mph 21.9 mph N/A   Overcast
7:35 AM 39.2 °F 31.2 °F 35.6 °F 87% 30.11 in 10.0 mi East 13.8 mph 18.4 mph N/A   Overcast
7:54 AM 39.2 °F 32.0 °F 35.6 °F 87% 30.11 in 10.0 mi East 11.5 mph 20.7 mph N/A   Overcast
8:15 AM 41.0 °F 33.1 °F 37.4 °F 87% 30.12 in 10.0 mi East 15.0 mph 20.7 mph N/A   Overcast
8:35 AM 42.8 °F 35.4 °F 39.2 °F 87% 30.11 in 10.0 mi East 15.0 mph 27.6 mph N/A   Overcast
8:54 AM 42.8 °F 34.8 °F 39.2 °F 87% 30.11 in 10.0 mi ESE 17.3 mph 24.2 mph N/A   Overcast
9:15 AM 42.8 °F 34.8 °F 39.2 °F 87% 30.10 in 10.0 mi ESE 17.3 mph 26.5 mph N/A   Drizzle
9:54 AM 42.8 °F 35.1 °F 39.2 °F 87% 30.11 in 10.0 mi East 16.1 mph 21.9 mph N/A   Overcast
10:15 AM 42.8 °F 35.1 °F 39.2 °F 87% 30.10 in 10.0 mi East 16.1 mph 21.9 mph N/A   Overcast
10:34 AM 42.8 °F 35.4 °F 39.2 °F 87% 30.09 in 5.0 mi East 15.0 mph 21.9 mph N/A Rain Rain
10:55 AM 42.8 °F 35.1 °F 39.2 °F 87% 30.07 in 4.0 mi East 16.1 mph - N/A Rain Light Rain
11:14 AM 42.8 °F 35.8 °F 39.2 °F 87% 30.07 in 7.0 mi East 13.8 mph 23.0 mph N/A Rain Light Rain
11:34 AM 42.8 °F 34.8 °F 39.2 °F 87% 30.06 in 4.0 mi East 17.3 mph 24.2 mph N/A Rain Light Rain
11:55 AM 42.8 °F 34.8 °F 39.2 °F 87% 30.05 in 3.0 mi East 17.3 mph 23.0 mph N/A Rain Light Rain
12:14 PM 42.8 °F 35.8 °F 39.2 °F 87% 30.05 in 2.5 mi East 13.8 mph 24.2 mph N/A   Overcast
12:35 PM 42.8 °F 35.4 °F 39.2 °F 87% 30.03 in 3.0 mi ESE 15.0 mph 23.0 mph N/A   Overcast
12:55 PM 42.8 °F 35.8 °F 39.2 °F 87% 30.02 in 7.0 mi East 13.8 mph 23.0 mph N/A Rain Light Rain
1:14 PM 42.8 °F 35.4 °F 39.2 °F 87% 30.02 in 1.5 mi East 15.0 mph 26.5 mph N/A   Overcast
1:35 PM 42.8 °F 35.4 °F 39.2 °F 87% 30.00 in 2.0 mi East 15.0 mph 24.2 mph N/A Rain Light Rain
1:54 PM 42.8 °F 35.1 °F 41.0 °F 93% 29.97 in 1.2 mi East 16.1 mph 26.5 mph N/A   Overcast
2:14 PM 42.8 °F 34.3 °F 41.0 °F 93% 29.96 in 4.0 mi East 19.6 mph 26.5 mph N/A   Overcast
2:35 PM 42.8 °F 34.5 °F 41.0 °F 93% 29.95 in 2.0 mi East 18.4 mph 26.5 mph N/A Rain Light Rain
2:54 PM 42.8 °F 34.8 °F 41.0 °F 93% 29.94 in 4.0 mi East 17.3 mph 27.6 mph N/A   Overcast
3:15 PM 42.8 °F 34.3 °F 39.2 °F 87% 29.93 in 5.0 mi East 19.6 mph 33.4 mph N/A   Light Drizzle
3:35 PM 42.8 °F 34.3 °F 39.2 °F 87% 29.93 in 4.0 mi East 19.6 mph 26.5 mph N/A   Overcast
3:54 PM 42.8 °F 33.8 °F 41.0 °F 93% 29.92 in 5.0 mi ESE 21.9 mph 27.6 mph N/A   Overcast
4:15 PM 42.8 °F 35.1 °F 41.0 °F 93% 29.91 in 4.0 mi East 16.1 mph 33.4 mph N/A   Overcast
4:34 PM 42.8 °F 33.8 °F 41.0 °F 93% 29.91 in 7.0 mi ESE 21.9 mph 33.4 mph N/A Rain Rain
4:54 PM 42.8 °F 33.8 °F 41.0 °F 93% 29.90 in 7.0 mi East 21.9 mph 28.8 mph N/A Rain Light Rain
5:15 PM 42.8 °F 33.5 °F 41.0 °F 93% 29.88 in 10.0 mi ESE 23.0 mph 26.5 mph N/A   Overcast
5:55 PM 44.6 °F 36.9 °F 42.8 °F 93% 29.89 in 10.0 mi ESE 18.4 mph 26.5 mph N/A   Overcast
6:14 PM 44.6 °F 36.6 °F 42.8 °F 93% 29.88 in 7.0 mi ESE 19.6 mph 24.2 mph N/A   Overcast
6:34 PM 44.6 °F 37.4 °F 42.8 °F 93% 29.89 in 7.0 mi ESE 16.1 mph 25.3 mph N/A   Overcast
6:55 PM 44.6 °F 36.9 °F 42.8 °F 93% 29.88 in 5.0 mi ESE 18.4 mph 23.0 mph N/A   Overcast
7:14 PM 44.6 °F 37.4 °F 42.8 °F 93% 29.88 in 5.0 mi ESE 16.1 mph 25.3 mph N/A   Overcast
7:35 PM 46.4 °F 40.7 °F 42.8 °F 87% 29.88 in 4.0 mi ESE 12.7 mph 20.7 mph N/A   Overcast
7:55 PM 46.4 °F 40.4 °F 42.8 °F 87% 29.88 in 3.0 mi ESE 13.8 mph 19.6 mph N/A   Overcast
8:14 PM 46.4 °F 40.4 °F 44.6 °F 93% 29.87 in 3.0 mi ESE 13.8 mph 18.4 mph N/A   Overcast
8:35 PM 46.4 °F 41.1 °F 44.6 °F 93% 29.86 in 2.5 mi ESE 11.5 mph - N/A   Overcast
8:54 PM 46.4 °F 41.9 °F 44.6 °F 93% 29.86 in 2.0 mi ESE 9.2 mph - N/A   Overcast
9:15 PM 46.4 °F 42.4 °F 44.6 °F 93% 29.85 in 2.0 mi ESE 8.1 mph - N/A   Overcast
9:35 PM 46.4 °F 41.5 °F 44.6 °F 93% 29.84 in 2.5 mi ESE 10.4 mph 16.1 mph N/A   Overcast
9:54 PM 48.2 °F - 44.6 °F 87% 29.84 in 2.5 mi ESE 10.4 mph - N/A   Overcast
10:34 PM 48.2 °F - 44.6 °F 87% 29.83 in 2.5 mi ESE 9.2 mph - N/A   Mostly Cloudy
10:55 PM 48.2 °F - 44.6 °F 87% 29.82 in 2.5 mi ESE 9.2 mph - N/A   Scattered Clouds
11:14 PM 48.2 °F - 44.6 °F 87% 29.83 in 3.0 mi ESE 8.1 mph - N/A   Clear
11:35 PM 46.4 °F 42.9 °F 44.6 °F 93% 29.84 in 2.5 mi ESE 6.9 mph - N/A   Scattered Clouds
11:55 PM 48.2 °F - 46.4 °F 93% 29.84 in 3.0 mi ESE 6.9 mph - N/A   Mostly Cloudy